Flag for Germany Weather past 2 weeks in Ludwigsfelde, Brandenburg, Germany

Now
44 °F

Drizzle. Low clouds.


Feels Like: 43 °F
Forecast: 38 / 56 °F
Wind: 3 mph from West

Location: Potsdam

Current Time: Apr 28, 2015 at 12:52:19 PM

Latest Report: Apr 28, 2015 at 12:00 PM


Visibility: 14 mi

Pressure: 29.90 "Hg

Humidity: 96%

Dew point: 43 °F

Location of LudwigsfeldeLocation

Historic Weather in Ludwigsfelde — Graph

°F

Ludwigsfelde temperature yesterday

Maximum temperature yesterday: 54 °F (at 12:00 PM)
Minimum temperature yesterday: 46 °F (at 11:00 PM)
Average temperature yesterday: 50 °F

Past Weeks' High & Low Weather Summary

 TemperatureHumidityPressure
High73 °F (Apr 15, 4:00 PM)100% (Apr 18, 5:00 AM)30.38 "Hg (Apr 18, 5:00 AM)
Low33 °F (Apr 18, 7:00 AM)19% (Apr 21, 4:00 PM)29.58 "Hg (Apr 27, 9:00 AM)
Average52 °F64%30.04 "Hg
* Reported Apr 13 11:00 AM — Apr 28 11:00 AM, Ludwigsfelde, Weather by CustomWeather, © 2015

Note: Actual official high and low records may vary slightly from our data, if they occured in-between our weather recording intervals... More about our weather records

Advertising

Ludwigsfelde weather history for previous 24 hours

 ConditionsComfort  
Time TempWeatherWind HumidityBarometerVisibility
11:00 AM
Tue, Apr 28
44 °FLight rain. Overcast.2 mph91%29.88 "Hg16 mi
10:00 AM45 °FLight rain. Overcast.3 mph88%29.85 "Hg16 mi
9:00 AM45 °FLight rain. Overcast.3 mph84%29.83 "Hg19 mi
8:00 AM45 °FOvercast.3 mph81%29.81 "Hg19 mi
7:00 AM44 °FOvercast.3 mph86%29.79 "Hg14 mi
6:00 AM44 °FOvercast.3 mph88%29.78 "Hg11 mi
5:00 AM44 °FLight rain. Overcast.3 mph87%29.77 "Hg22 mi
4:00 AM44 °FOvercast.5 mph80%29.76 "Hg22 mi
3:00 AM44 °FDrizzle. Overcast.6 mph81%29.75 "Hg25 mi
2:00 AM45 °FOvercast.5 mph82%29.75 "Hg28 mi
1:00 AM45 °FOvercast.5 mph88%29.75 "Hg28 mi
12:00 AM46 °FOvercast.5 mph87%29.75 "Hg28 mi
11:00 PM
Mon, Apr 27
46 °FOvercast.5 mph83%29.75 "Hg25 mi
10:00 PM46 °FOvercast.5 mph88%29.75 "Hg19 mi
9:00 PM47 °FLow clouds.6 mph90%29.70 "Hg19 mi
8:00 PM47 °FLight rain. Low clouds.7 mph92%29.70 "Hg19 mi
7:00 PM48 °FLight rain. Low clouds.6 mph94%29.70 "Hg22 mi
6:00 PM49 °FLight rain. Low clouds.6 mph96%29.68 "Hg17 mi
5:00 PM50 °FLight rain. Low clouds.6 mph96%29.68 "Hg16 mi
4:00 PM50 °FLight rain. Low clouds.5 mph95%29.67 "Hg5 mi
3:00 PM50 °FLight rain. Low clouds.6 mph95%29.66 "Hg4 mi
2:00 PM52 °FLight rain. Low clouds.3 mph97%29.63 "Hg2 mi
1:00 PM54 °FLight rain. Low clouds.3 mph94%29.62 "Hg2 mi
12:00 PM54 °FFog.3 mph96%29.61 "Hg2 mi
Weather by CustomWeather, © 2015

See weather overviewHow to use our weather pages